Location: Croydon
(51.3762°N, 0.0982°W)
Time: 09:56:03
(UTC+00:00)

Envisat - Pass Details

Date: 23 February 2019
Orbit: 764 x 766 km, 98.2° (Epoch: 22 March)

Event Time Altitude Azimuth Distance (km) Brightness Sun altitude
Rises 20:22:31 0° 226° (SW) 3,226 6.6 -27.4°
Reaches altitude 10° 20:26:56 10° 263° (W) 2,307 6.2 -28.0°
Maximum altitude 20:28:12 11° 277° (W) 2,251 6.3 -28.2°
Drops below altitude 10° 20:29:27 10° 292° (WNW) 2,311 6.4 -28.4°
Sets 20:33:55 0° 329° (NNW) 3,245 7.0 -29.0°
